owner,sensor,date,latitude,longitude,vertical_datum,sea_water_practical_salinity,qcFlag 
SCCF RECON,ioos:station:SCCF:56:1,2014-10-01T00:00:00Z,26.4645,-82.1044,1.13,26.4,1111122 
SCCF RECON,ioos:station:SCCF:56:1,2014-10-01T01:00:00Z,26.4645,-82.1044,1.12,26.52,1111122 
SCCF RECON,ioos:station:SCCF:56:1,2014-10-01T02:00:00Z,26.4645,-82.1044,1.11,26.46,1111122 
SCCF RECON,ioos:station:SCCF:56:1,2014-10-01T03:00:00Z,26.4645,-82.1044,1.11,26.49,1111122 
SCCF RECON,ioos:station:SCCF:56:1,2014-10-01T04:00:00Z,26.4645,-82.1044,1.105,26.46,1111122 
SCCF RECON,ioos:station:SCCF:56:1,2014-10-01T05:00:00Z,26.4645,-82.1044,1.09,26.45,1111122 
SCCF RECON,ioos:station:SCCF:56:1,2014-10-01T06:00:00Z,26.4645,-82.1044,1.07,26.46,1111122 
SCCF RECON,ioos:station:SCCF:56:1,2014-10-01T07:00:00Z,26.4645,-82.1044,1.07,26.44,1111122 
SCCF RECON,ioos:station:SCCF:56:1,2014-10-01T08:00:00Z,26.4645,-82.1044,1.07,26.62,1111122 
SCCF RECON,ioos:station:SCCF:56:1,2014-10-01T09:00:00Z,26.4645,-82.1044,1.07,26.69,1111122 
SCCF RECON,ioos:station:SCCF:56:1,2014-10-01T10:00:00Z,26.4645,-82.1044,1.07,26.66,1111122 
SCCF RECON,ioos:station:SCCF:56:1,2014-10-01T11:00:00Z,26.4645,-82.1044,1.062,26.57,1111122 
SCCF RECON,ioos:station:SCCF:56:1,2014-10-01T12:00:00Z,26.4645,-82.1044,1.05,26.56,1111122 
SCCF RECON,ioos:station:SCCF:56:1,2014-10-01T13:00:00Z,26.4645,-82.1044,1.05,26.54,1111122 
SCCF RECON,ioos:station:SCCF:56:1,2014-10-01T14:00:00Z,26.4645,-82.1044,1.06,26.62,1111122 
SCCF RECON,ioos:station:SCCF:56:1,2014-10-01T15:00:00Z,26.4645,-82.1044,1.08,26.71,1111122 
SCCF RECON,ioos:station:SCCF:56:1,2014-10-01T16:00:00Z,26.4645,-82.1044,1.11,26.76,1111122 
SCCF RECON,ioos:station:SCCF:56:1,2014-10-01T17:00:00Z,26.4645,-82.1044,1.14,26.92,1111122 
SCCF RECON,ioos:station:SCCF:56:1,2014-10-01T18:00:00Z,26.4645,-82.1044,1.18,26.92,1111122 
SCCF RECON,ioos:station:SCCF:56:1,2014-10-01T19:00:00Z,26.4645,-82.1044,1.19,26.78,1111122 
SCCF RECON,ioos:station:SCCF:56:1,2014-10-01T20:00:00Z,26.4645,-82.1044,1.16,26.79,1111122 
SCCF RECON,ioos:station:SCCF:56:1,2014-10-01T21:00:00Z,26.4645,-82.1044,1.14,26.8,1111122 
SCCF RECON,ioos:station:SCCF:56:1,2014-10-01T22:00:00Z,26.4645,-82.1044,1.13,26.71,1111122 
SCCF RECON,ioos:station:SCCF:56:1,2014-10-01T23:00:00Z,26.4645,-82.1044,1.13,26.69,1111122 
SCCF RECON,ioos:station:SCCF:56:1,2014-10-02T00:00:00Z,26.4645,-82.1044,1.13,26.71,1111122 
SCCF RECON,ioos:station:SCCF:56:1,2014-10-02T01:00:00Z,26.4645,-82.1044,1.13,26.71,1111122 
SCCF RECON,ioos:station:SCCF:56:1,2014-10-02T02:00:00Z,26.4645,-82.1044,1.13,26.66,1111122 
SCCF RECON,ioos:station:SCCF:56:1,2014-10-02T03:00:00Z,26.4645,-82.1044,1.12,26.72,1111122 
SCCF RECON,ioos:station:SCCF:56:1,2014-10-02T04:00:00Z,26.4645,-82.1044,1.12,26.76,1111122 
SCCF RECON,ioos:station:SCCF:56:1,2014-10-02T05:00:00Z,26.4645,-82.1044,1.12,26.78,1111122 
SCCF RECON,ioos:station:SCCF:56:1,2014-10-02T06:00:00Z,26.4645,-82.1044,1.118,26.72,1111122 
SCCF RECON,ioos:station:SCCF:56:1,2014-10-02T07:00:00Z,26.4645,-82.1044,1.091,26.72,1111122 
SCCF RECON,ioos:station:SCCF:56:1,2014-10-02T08:00:00Z,26.4645,-82.1044,1.08,26.75,1111122 
SCCF RECON,ioos:station:SCCF:56:1,2014-10-02T09:00:00Z,26.4645,-82.1044,1.08,26.82,1111122 
SCCF RECON,ioos:station:SCCF:56:1,2014-10-02T10:00:00Z,26.4645,-82.1044,1.08,26.93,1111122 
SCCF RECON,ioos:station:SCCF:56:1,2014-10-02T11:00:00Z,26.4645,-82.1044,1.08,26.92,1111122 
SCCF RECON,ioos:station:SCCF:56:1,2014-10-02T12:00:00Z,26.4645,-82.1044,1.08,26.85,1111122 
SCCF RECON,ioos:station:SCCF:56:1,2014-10-02T13:00:00Z,26.4645,-82.1044,1.08,26.87,1111122 
SCCF RECON,ioos:station:SCCF:56:1,2014-10-02T14:00:00Z,26.4645,-82.1044,1.08,26.85,1111122 
SCCF RECON,ioos:station:SCCF:56:1,2014-10-02T15:00:00Z,26.4645,-82.1044,1.1,26.9,1111122 
SCCF RECON,ioos:station:SCCF:56:1,2014-10-02T16:00:00Z,26.4645,-82.1044,1.12,27.01,1111122 
SCCF RECON,ioos:station:SCCF:56:1,2014-10-02T17:00:00Z,26.4645,-82.1044,1.16,27.11,1111122 
SCCF RECON,ioos:station:SCCF:56:1,2014-10-02T18:00:00Z,26.4645,-82.1044,1.21,27.25,1111122 
SCCF RECON,ioos:station:SCCF:56:1,2014-10-02T19:00:00Z,26.4645,-82.1044,1.25,27.3,1111122 
SCCF RECON,ioos:station:SCCF:56:1,2014-10-02T20:00:00Z,26.4645,-82.1044,1.244,27.19,1111122 
SCCF RECON,ioos:station:SCCF:56:1,2014-10-02T21:00:00Z,26.4645,-82.1044,1.19,26.95,1111122 
SCCF RECON,ioos:station:SCCF:56:1,2014-10-02T22:00:00Z,26.4645,-82.1044,1.17,26.96,1111122 
SCCF RECON,ioos:station:SCCF:56:1,2014-10-02T23:00:00Z,26.4645,-82.1044,1.156,26.98,1111122 
SCCF RECON,ioos:station:SCCF:56:1,2014-10-03T00:00:00Z,26.4645,-82.1044,1.131,27.03,1111122 
SCCF RECON,ioos:station:SCCF:56:1,2014-10-03T01:00:00Z,26.4645,-82.1044,1.12,27.06,1111122 
SCCF RECON,ioos:station:SCCF:56:1,2014-10-03T02:00:00Z,26.4645,-82.1044,1.11,27.04,1111122 
SCCF RECON,ioos:station:SCCF:56:1,2014-10-03T03:00:00Z,26.4645,-82.1044,1.12,27.02,1111122 
SCCF RECON,ioos:station:SCCF:56:1,2014-10-03T04:00:00Z,26.4645,-82.1044,1.113,27.04,1111122 
SCCF RECON,ioos:station:SCCF:56:1,2014-10-03T05:00:00Z,26.4645,-82.1044,1.12,27.07,1111122 
SCCF RECON,ioos:station:SCCF:56:1,2014-10-03T06:00:00Z,26.4645,-82.1044,1.113,27.1,1111122 
SCCF RECON,ioos:station:SCCF:56:1,2014-10-03T07:00:00Z,26.4645,-82.1044,1.11,27.1,1111122 
SCCF RECON,ioos:station:SCCF:56:1,2014-10-03T08:00:00Z,26.4645,-82.1044,1.07,25.08,1111122 
SCCF RECON,ioos:station:SCCF:56:1,2014-10-03T09:00:00Z,26.4645,-82.1044,1.04,25.1,1111122 
SCCF RECON,ioos:station:SCCF:56:1,2014-10-03T10:00:00Z,26.4645,-82.1044,1.05,25.93,1111122 
SCCF RECON,ioos:station:SCCF:56:1,2014-10-03T11:00:00Z,26.4645,-82.1044,1.052,25.85,1111122 
SCCF RECON,ioos:station:SCCF:56:1,2014-10-03T12:00:00Z,26.4645,-82.1044,1.07,26.82,1111122 
SCCF RECON,ioos:station:SCCF:56:1,2014-10-03T13:00:00Z,26.4645,-82.1044,1.087,26.87,1111122 
SCCF RECON,ioos:station:SCCF:56:1,2014-10-03T14:00:00Z,26.4645,-82.1044,1.08,26.53,1111122 
SCCF RECON,ioos:station:SCCF:56:1,2014-10-03T15:00:00Z,26.4645,-82.1044,1.09,26.22,1111122 
SCCF RECON,ioos:station:SCCF:56:1,2014-10-03T16:00:00Z,26.4645,-82.1044,1.116,26.42,1111122 
SCCF RECON,ioos:station:SCCF:56:1,2014-10-03T17:00:00Z,26.4645,-82.1044,1.14,26.79,1111122 
SCCF RECON,ioos:station:SCCF:56:1,2014-10-03T18:00:00Z,26.4645,-82.1044,1.18,26.99,1111122 
SCCF RECON,ioos:station:SCCF:56:1,2014-10-03T19:00:00Z,26.4645,-82.1044,1.23,27.2,1111122 
SCCF RECON,ioos:station:SCCF:56:1,2014-10-03T20:00:00Z,26.4645,-82.1044,1.26,27.18,1111122 
SCCF RECON,ioos:station:SCCF:56:1,2014-10-03T21:00:00Z,26.4645,-82.1044,1.26,27.19,1111122 
SCCF RECON,ioos:station:SCCF:56:1,2014-10-03T22:00:00Z,26.4645,-82.1044,1.23,26.75,1111122 
SCCF RECON,ioos:station:SCCF:56:1,2014-10-03T23:00:00Z,26.4645,-82.1044,1.18,26.75,1111122 
SCCF RECON,ioos:station:SCCF:56:1,2014-10-04T00:00:00Z,26.4645,-82.1044,1.15,26.79,1111122 
SCCF RECON,ioos:station:SCCF:56:1,2014-10-04T01:00:00Z,26.4645,-82.1044,1.14,26.75,1111122 
SCCF RECON,ioos:station:SCCF:56:1,2014-10-04T02:00:00Z,26.4645,-82.1044,1.134,26.65,1111122 
SCCF RECON,ioos:station:SCCF:56:1,2014-10-04T03:00:00Z,26.4645,-82.1044,1.14,26.72,1111122 
SCCF RECON,ioos:station:SCCF:56:1,2014-10-04T04:00:00Z,26.4645,-82.1044,1.13,26.7,1111122 
SCCF RECON,ioos:station:SCCF:56:1,2014-10-04T05:00:00Z,26.4645,-82.1044,1.12,26.9,1111122 
SCCF RECON,ioos:station:SCCF:56:1,2014-10-04T06:00:00Z,26.4645,-82.1044,1.12,26.96,1111122 
SCCF RECON,ioos:station:SCCF:56:1,2014-10-04T07:00:00Z,26.4645,-82.1044,1.114,27.01,1111122 
SCCF RECON,ioos:station:SCCF:56:1,2014-10-04T08:00:00Z,26.4645,-82.1044,1.11,26.98,1111122 
SCCF RECON,ioos:station:SCCF:56:1,2014-10-04T09:00:00Z,26.4645,-82.1044,1.09,26.82,1111122 
SCCF RECON,ioos:station:SCCF:56:1,2014-10-04T10:00:00Z,26.4645,-82.1044,1.06,26.87,1111122 
SCCF RECON,ioos:station:SCCF:56:1,2014-10-04T11:00:00Z,26.4645,-82.1044,1.06,26.75,1111122 
SCCF RECON,ioos:station:SCCF:56:1,2014-10-04T12:00:00Z,26.4645,-82.1044,1.051,26.98,1111122 
SCCF RECON,ioos:station:SCCF:56:1,2014-10-04T13:00:00Z,26.4645,-82.1044,1.07,26.71,1111122 
SCCF RECON,ioos:station:SCCF:56:1,2014-10-04T14:00:00Z,26.4645,-82.1044,1.08,26.92,1111122 
SCCF RECON,ioos:station:SCCF:56:1,2014-10-04T15:00:00Z,26.4645,-82.1044,1.09,26.81,1111122 
SCCF RECON,ioos:station:SCCF:56:1,2014-10-04T16:00:00Z,26.4645,-82.1044,1.086,26.83,1111122 
SCCF RECON,ioos:station:SCCF:56:1,2014-10-04T17:00:00Z,26.4645,-82.1044,1.09,26.9,1111122 
SCCF RECON,ioos:station:SCCF:56:1,2014-10-04T18:00:00Z,26.4645,-82.1044,1.09,27.02,1111122 
SCCF RECON,ioos:station:SCCF:56:1,2014-10-04T19:00:00Z,26.4645,-82.1044,1.097,27.13,1111122 
SCCF RECON,ioos:station:SCCF:56:1,2014-10-04T20:00:00Z,26.4645,-82.1044,1.1,27.26,1111122 
SCCF RECON,ioos:station:SCCF:56:1,2014-10-04T21:00:00Z,26.4645,-82.1044,1.09,27.3,1111122 
SCCF RECON,ioos:station:SCCF:56:1,2014-10-04T22:00:00Z,26.4645,-82.1044,1.07,27.12,1111122 
SCCF RECON,ioos:station:SCCF:56:1,2014-10-04T23:00:00Z,26.4645,-82.1044,1.02,27.23,1111122 
SCCF RECON,ioos:station:SCCF:56:1,2014-10-05T00:00:00Z,26.4645,-82.1044,0.99,27.29,1111122 
SCCF RECON,ioos:station:SCCF:56:1,2014-10-05T01:00:00Z,26.4645,-82.1044,0.99,27.37,1111122 
SCCF RECON,ioos:station:SCCF:56:1,2014-10-05T02:00:00Z,26.4645,-82.1044,0.96,27.43,1111122 
SCCF RECON,ioos:station:SCCF:56:1,2014-10-05T03:00:00Z,26.4645,-82.1044,0.97,27.89,1111122 
SCCF RECON,ioos:station:SCCF:56:1,2014-10-05T04:00:00Z,26.4645,-82.1044,0.98,27.46,1111122 
SCCF RECON,ioos:station:SCCF:56:1,2014-10-05T05:00:00Z,26.4645,-82.1044,0.97,27.55,1111122 
SCCF RECON,ioos:station:SCCF:56:1,2014-10-05T06:00:00Z,26.4645,-82.1044,0.96,27.46,1111122 
SCCF RECON,ioos:station:SCCF:56:1,2014-10-05T07:00:00Z,26.4645,-82.1044,0.95,27.49,1111122 
SCCF RECON,ioos:station:SCCF:56:1,2014-10-05T08:00:00Z,26.4645,-82.1044,0.93,27.55,1111122 
SCCF RECON,ioos:station:SCCF:56:1,2014-10-05T09:00:00Z,26.4645,-82.1044,0.91,27.56,1111122 
SCCF RECON,ioos:station:SCCF:56:1,2014-10-05T10:00:00Z,26.4645,-82.1044,0.87,27.57,1111122 
SCCF RECON,ioos:station:SCCF:56:1,2014-10-05T11:00:00Z,26.4645,-82.1044,0.83,27.67,1111122 
SCCF RECON,ioos:station:SCCF:56:1,2014-10-05T12:00:00Z,26.4645,-82.1044,0.791,27.87,1111122 
SCCF RECON,ioos:station:SCCF:56:1,2014-10-05T13:00:00Z,26.4645,-82.1044,0.83,28.3,1111122 
SCCF RECON,ioos:station:SCCF:56:1,2014-10-05T14:00:00Z,26.4645,-82.1044,0.889,28.08,1111122 
SCCF RECON,ioos:station:SCCF:56:1,2014-10-05T15:00:00Z,26.4645,-82.1044,0.91,28.17,1111122 
SCCF RECON,ioos:station:SCCF:56:1,2014-10-05T16:00:00Z,26.4645,-82.1044,0.92,27.94,1111122 
SCCF RECON,ioos:station:SCCF:56:1,2014-10-05T17:00:00Z,26.4645,-82.1044,0.92,28.05,1111122 
SCCF RECON,ioos:station:SCCF:56:1,2014-10-05T18:00:00Z,26.4645,-82.1044,0.93,28.0,1111122 
SCCF RECON,ioos:station:SCCF:56:1,2014-10-05T19:00:00Z,26.4645,-82.1044,0.93,27.95,1111122 
SCCF RECON,ioos:station:SCCF:56:1,2014-10-05T20:00:00Z,26.4645,-82.1044,0.94,27.95,1111122 
SCCF RECON,ioos:station:SCCF:56:1,2014-10-05T21:00:00Z,26.4645,-82.1044,0.94,27.96,1111122 
SCCF RECON,ioos:station:SCCF:56:1,2014-10-05T22:00:00Z,26.4645,-82.1044,0.93,27.95,1111122 
SCCF RECON,ioos:station:SCCF:56:1,2014-10-05T23:00:00Z,26.4645,-82.1044,0.912,28.07,1111122 
SCCF RECON,ioos:station:SCCF:56:1,2014-10-06T00:00:00Z,26.4645,-82.1044,0.87,28.37,1111122 
SCCF RECON,ioos:station:SCCF:56:1,2014-10-06T01:00:00Z,26.4645,-82.1044,0.91,27.51,1111122 
SCCF RECON,ioos:station:SCCF:56:1,2014-10-06T02:00:00Z,26.4645,-82.1044,0.91,27.82,1111122 
SCCF RECON,ioos:station:SCCF:56:1,2014-10-06T03:00:00Z,26.4645,-82.1044,0.9,27.76,1111122 
SCCF RECON,ioos:station:SCCF:56:1,2014-10-06T04:00:00Z,26.4645,-82.1044,0.885,27.35,1111122 
SCCF RECON,ioos:station:SCCF:56:1,2014-10-06T05:00:00Z,26.4645,-82.1044,0.88,27.49,1111122 
SCCF RECON,ioos:station:SCCF:56:1,2014-10-06T06:00:00Z,26.4645,-82.1044,0.86,27.92,1111122 
SCCF RECON,ioos:station:SCCF:56:1,2014-10-06T07:00:00Z,26.4645,-82.1044,0.84,28.04,1111122 
SCCF RECON,ioos:station:SCCF:56:1,2014-10-06T08:00:00Z,26.4645,-82.1044,0.82,28.12,1111122 
SCCF RECON,ioos:station:SCCF:56:1,2014-10-06T09:00:00Z,26.4645,-82.1044,0.8,28.15,1111122 
SCCF RECON,ioos:station:SCCF:56:1,2014-10-06T10:00:00Z,26.4645,-82.1044,0.77,28.16,1111122 
SCCF RECON,ioos:station:SCCF:56:1,2014-10-06T11:00:00Z,26.4645,-82.1044,0.77,26.76,1111122 
SCCF RECON,ioos:station:SCCF:56:1,2014-10-06T12:00:00Z,26.4645,-82.1044,0.8,26.03,1111122 
SCCF RECON,ioos:station:SCCF:56:1,2014-10-06T13:00:00Z,26.4645,-82.1044,0.81,26.37,1111122 
SCCF RECON,ioos:station:SCCF:56:1,2014-10-06T14:00:00Z,26.4645,-82.1044,0.81,26.49,1111122 
SCCF RECON,ioos:station:SCCF:56:1,2014-10-06T15:00:00Z,26.4645,-82.1044,0.83,26.29,1111122 
SCCF RECON,ioos:station:SCCF:56:1,2014-10-06T16:00:00Z,26.4645,-82.1044,0.86,26.38,1111122 
SCCF RECON,ioos:station:SCCF:56:1,2014-10-06T17:00:00Z,26.4645,-82.1044,0.86,26.54,1111122 
SCCF RECON,ioos:station:SCCF:56:1,2014-10-06T18:00:00Z,26.4645,-82.1044,0.87,26.4,1111122 
SCCF RECON,ioos:station:SCCF:56:1,2014-10-06T19:00:00Z,26.4645,-82.1044,0.88,26.54,1111122 
SCCF RECON,ioos:station:SCCF:56:1,2014-10-06T20:00:00Z,26.4645,-82.1044,0.89,26.87,1111122 
SCCF RECON,ioos:station:SCCF:56:1,2014-10-06T21:00:00Z,26.4645,-82.1044,0.89,27.13,1111122 
SCCF RECON,ioos:station:SCCF:56:1,2014-10-06T22:00:00Z,26.4645,-82.1044,0.89,27.25,1111122 
SCCF RECON,ioos:station:SCCF:56:1,2014-10-06T23:00:00Z,26.4645,-82.1044,0.89,27.21,1111122 
SCCF RECON,ioos:station:SCCF:56:1,2014-10-07T00:00:00Z,26.4645,-82.1044,0.89,26.57,1111122 
SCCF RECON,ioos:station:SCCF:56:1,2014-10-07T01:00:00Z,26.4645,-82.1044,0.9,26.45,1111122 
SCCF RECON,ioos:station:SCCF:56:1,2014-10-07T02:00:00Z,26.4645,-82.1044,0.9,26.34,1111122 
SCCF RECON,ioos:station:SCCF:56:1,2014-10-07T03:00:00Z,26.4645,-82.1044,0.89,26.31,1111122 
SCCF RECON,ioos:station:SCCF:56:1,2014-10-07T04:00:00Z,26.4645,-82.1044,0.89,26.1,1111122 
SCCF RECON,ioos:station:SCCF:56:1,2014-10-07T05:00:00Z,26.4645,-82.1044,0.886,26.17,1111122 
SCCF RECON,ioos:station:SCCF:56:1,2014-10-07T06:00:00Z,26.4645,-82.1044,0.88,26.27,1111122 
SCCF RECON,ioos:station:SCCF:56:1,2014-10-07T07:00:00Z,26.4645,-82.1044,0.87,26.45,1111122 
SCCF RECON,ioos:station:SCCF:56:1,2014-10-07T08:00:00Z,26.4645,-82.1044,0.86,26.72,1111122 
SCCF RECON,ioos:station:SCCF:56:1,2014-10-07T09:00:00Z,26.4645,-82.1044,0.85,26.91,1111122 
SCCF RECON,ioos:station:SCCF:56:1,2014-10-07T10:00:00Z,26.4645,-82.1044,0.837,27.12,1111122 
SCCF RECON,ioos:station:SCCF:56:1,2014-10-07T11:00:00Z,26.4645,-82.1044,0.821,27.11,1111122 
SCCF RECON,ioos:station:SCCF:56:1,2014-10-07T12:00:00Z,26.4645,-82.1044,0.83,26.42,1111122 
SCCF RECON,ioos:station:SCCF:56:1,2014-10-07T13:00:00Z,26.4645,-82.1044,0.84,26.51,1111122 
SCCF RECON,ioos:station:SCCF:56:1,2014-10-07T14:00:00Z,26.4645,-82.1044,0.846,26.4,1111122 
SCCF RECON,ioos:station:SCCF:56:1,2014-10-07T15:00:00Z,26.4645,-82.1044,0.86,26.39,1111122 
SCCF RECON,ioos:station:SCCF:56:1,2014-10-07T16:00:00Z,26.4645,-82.1044,0.871,26.51,1111122 
SCCF RECON,ioos:station:SCCF:56:1,2014-10-07T17:00:00Z,26.4645,-82.1044,0.89,26.45,1111122 
SCCF RECON,ioos:station:SCCF:56:1,2014-10-07T18:00:00Z,26.4645,-82.1044,0.899,26.51,1111122 
SCCF RECON,ioos:station:SCCF:56:1,2014-10-07T19:00:00Z,26.4645,-82.1044,0.89,26.43,1111122 
SCCF RECON,ioos:station:SCCF:56:1,2014-10-07T20:00:00Z,26.4645,-82.1044,0.89,26.52,1111122 
SCCF RECON,ioos:station:SCCF:56:1,2014-10-07T21:00:00Z,26.4645,-82.1044,0.88,26.68,1111122 
SCCF RECON,ioos:station:SCCF:56:1,2014-10-07T22:00:00Z,26.4645,-82.1044,0.88,26.82,1111122 
SCCF RECON,ioos:station:SCCF:56:1,2014-10-07T23:00:00Z,26.4645,-82.1044,0.87,26.95,1111122 
SCCF RECON,ioos:station:SCCF:56:1,2014-10-08T00:00:00Z,26.4645,-82.1044,0.87,26.84,1111122 
SCCF RECON,ioos:station:SCCF:56:1,2014-10-08T01:00:00Z,26.4645,-82.1044,0.864,26.58,1111122 
SCCF RECON,ioos:station:SCCF:56:1,2014-10-08T02:00:00Z,26.4645,-82.1044,0.87,26.65,1111122 
SCCF RECON,ioos:station:SCCF:56:1,2014-10-08T03:00:00Z,26.4645,-82.1044,0.87,26.7,1111122 
SCCF RECON,ioos:station:SCCF:56:1,2014-10-08T04:00:00Z,26.4645,-82.1044,0.87,26.7,1111122 
SCCF RECON,ioos:station:SCCF:56:1,2014-10-08T05:00:00Z,26.4645,-82.1044,0.86,26.55,1111122 
SCCF RECON,ioos:station:SCCF:56:1,2014-10-08T06:00:00Z,26.4645,-82.1044,0.86,26.63,1111122 
SCCF RECON,ioos:station:SCCF:56:1,2014-10-08T07:00:00Z,26.4645,-82.1044,0.856,26.7,1111122 
SCCF RECON,ioos:station:SCCF:56:1,2014-10-08T08:00:00Z,26.4645,-82.1044,0.85,26.82,1111122 
SCCF RECON,ioos:station:SCCF:56:1,2014-10-08T09:00:00Z,26.4645,-82.1044,0.84,26.92,1111122 
SCCF RECON,ioos:station:SCCF:56:1,2014-10-08T10:00:00Z,26.4645,-82.1044,0.83,27.05,1111122 
SCCF RECON,ioos:station:SCCF:56:1,2014-10-08T11:00:00Z,26.4645,-82.1044,0.82,27.18,1111122 
SCCF RECON,ioos:station:SCCF:56:1,2014-10-08T12:00:00Z,26.4645,-82.1044,0.82,27.2,1111122 
SCCF RECON,ioos:station:SCCF:56:1,2014-10-08T13:00:00Z,26.4645,-82.1044,0.83,26.91,1111122 
SCCF RECON,ioos:station:SCCF:56:1,2014-10-08T14:00:00Z,26.4645,-82.1044,0.85,26.83,1111122 
SCCF RECON,ioos:station:SCCF:56:1,2014-10-08T17:00:00Z,26.4645,-82.1044,0.93,26.99,1111122 
SCCF RECON,ioos:station:SCCF:56:1,2014-10-08T18:00:00Z,26.4645,-82.1044,0.93,26.96,1111122 
SCCF RECON,ioos:station:SCCF:56:1,2014-10-08T19:00:00Z,26.4645,-82.1044,0.94,26.94,1111122 
SCCF RECON,ioos:station:SCCF:56:1,2014-10-08T20:00:00Z,26.4645,-82.1044,0.96,26.93,1111122 
SCCF RECON,ioos:station:SCCF:56:1,2014-10-08T21:00:00Z,26.4645,-82.1044,0.97,27.01,1111122 
SCCF RECON,ioos:station:SCCF:56:1,2014-10-08T22:00:00Z,26.4645,-82.1044,0.98,27.06,1111122 
SCCF RECON,ioos:station:SCCF:56:1,2014-10-08T23:00:00Z,26.4645,-82.1044,0.99,27.12,1111122 
SCCF RECON,ioos:station:SCCF:56:1,2014-10-09T00:00:00Z,26.4645,-82.1044,0.99,27.16,1111122 
SCCF RECON,ioos:station:SCCF:56:1,2014-10-09T01:00:00Z,26.4645,-82.1044,0.99,27.16,1111122 
SCCF RECON,ioos:station:SCCF:56:1,2014-10-09T02:00:00Z,26.4645,-82.1044,0.97,27.08,1111122 
SCCF RECON,ioos:station:SCCF:56:1,2014-10-09T03:00:00Z,26.4645,-82.1044,0.95,27.0,1111122 
SCCF RECON,ioos:station:SCCF:56:1,2014-10-09T04:00:00Z,26.4645,-82.1044,0.94,26.98,1111122 
SCCF RECON,ioos:station:SCCF:56:1,2014-10-09T05:00:00Z,26.4645,-82.1044,0.93,27.03,1111122 
SCCF RECON,ioos:station:SCCF:56:1,2014-10-09T06:00:00Z,26.4645,-82.1044,0.92,27.05,1111122 
SCCF RECON,ioos:station:SCCF:56:1,2014-10-09T07:00:00Z,26.4645,-82.1044,0.92,27.03,1111122 
SCCF RECON,ioos:station:SCCF:56:1,2014-10-09T08:00:00Z,26.4645,-82.1044,0.92,27.09,1111122 
SCCF RECON,ioos:station:SCCF:56:1,2014-10-09T09:00:00Z,26.4645,-82.1044,0.92,27.1,1111122 
SCCF RECON,ioos:station:SCCF:56:1,2014-10-09T10:00:00Z,26.4645,-82.1044,0.91,27.18,1111122 
SCCF RECON,ioos:station:SCCF:56:1,2014-10-09T11:00:00Z,26.4645,-82.1044,0.9,27.26,1111122 
SCCF RECON,ioos:station:SCCF:56:1,2014-10-09T12:00:00Z,26.4645,-82.1044,0.896,27.34,1111122 
SCCF RECON,ioos:station:SCCF:56:1,2014-10-09T13:00:00Z,26.4645,-82.1044,0.89,27.46,1111122 
SCCF RECON,ioos:station:SCCF:56:1,2014-10-09T14:00:00Z,26.4645,-82.1044,0.89,27.44,1111122 
SCCF RECON,ioos:station:SCCF:56:1,2014-10-09T15:00:00Z,26.4645,-82.1044,0.91,27.2,1111122 
SCCF RECON,ioos:station:SCCF:56:1,2014-10-09T16:00:00Z,26.4645,-82.1044,0.94,27.18,1111122 
SCCF RECON,ioos:station:SCCF:56:1,2014-10-09T17:00:00Z,26.4645,-82.1044,0.95,27.11,1111122 
SCCF RECON,ioos:station:SCCF:56:1,2014-10-09T18:00:00Z,26.4645,-82.1044,0.961,27.14,1111122 
SCCF RECON,ioos:station:SCCF:56:1,2014-10-09T19:00:00Z,26.4645,-82.1044,0.98,27.15,1111122 
SCCF RECON,ioos:station:SCCF:56:1,2014-10-09T20:00:00Z,26.4645,-82.1044,0.99,27.14,1111122 
SCCF RECON,ioos:station:SCCF:56:1,2014-10-09T21:00:00Z,26.4645,-82.1044,1.008,27.15,1111122 
SCCF RECON,ioos:station:SCCF:56:1,2014-10-09T22:00:00Z,26.4645,-82.1044,1.01,27.22,1111122 
SCCF RECON,ioos:station:SCCF:56:1,2014-10-09T23:00:00Z,26.4645,-82.1044,1.01,27.25,1111122 
SCCF RECON,ioos:station:SCCF:56:1,2014-10-10T00:00:00Z,26.4645,-82.1044,1.01,27.32,1111122 
SCCF RECON,ioos:station:SCCF:56:1,2014-10-10T01:00:00Z,26.4645,-82.1044,1.01,27.35,1111122 
SCCF RECON,ioos:station:SCCF:56:1,2014-10-10T02:00:00Z,26.4645,-82.1044,0.99,27.31,1111122 
SCCF RECON,ioos:station:SCCF:56:1,2014-10-10T03:00:00Z,26.4645,-82.1044,0.959,27.08,1111122 
SCCF RECON,ioos:station:SCCF:56:1,2014-10-10T04:00:00Z,26.4645,-82.1044,0.93,27.02,1111122 
SCCF RECON,ioos:station:SCCF:56:1,2014-10-10T05:00:00Z,26.4645,-82.1044,0.92,26.81,1111122 
SCCF RECON,ioos:station:SCCF:56:1,2014-10-10T06:00:00Z,26.4645,-82.1044,0.92,26.75,1111122 
SCCF RECON,ioos:station:SCCF:56:1,2014-10-10T07:00:00Z,26.4645,-82.1044,0.92,26.71,1111122 
SCCF RECON,ioos:station:SCCF:56:1,2014-10-10T08:00:00Z,26.4645,-82.1044,0.911,26.83,1111122 
SCCF RECON,ioos:station:SCCF:56:1,2014-10-10T09:00:00Z,26.4645,-82.1044,0.91,26.93,1111122 
SCCF RECON,ioos:station:SCCF:56:1,2014-10-10T10:00:00Z,26.4645,-82.1044,0.91,27.08,1111122 
SCCF RECON,ioos:station:SCCF:56:1,2014-10-10T11:00:00Z,26.4645,-82.1044,0.9,27.23,1111122 
SCCF RECON,ioos:station:SCCF:56:1,2014-10-10T12:00:00Z,26.4645,-82.1044,0.89,27.36,1111122 
SCCF RECON,ioos:station:SCCF:56:1,2014-10-10T13:00:00Z,26.4645,-82.1044,0.88,27.48,1111122 
SCCF RECON,ioos:station:SCCF:56:1,2014-10-10T14:00:00Z,26.4645,-82.1044,0.88,27.59,1111122 
SCCF RECON,ioos:station:SCCF:56:1,2014-10-10T15:00:00Z,26.4645,-82.1044,0.89,27.15,1111122 
SCCF RECON,ioos:station:SCCF:56:1,2014-10-10T16:00:00Z,26.4645,-82.1044,0.939,27.12,1111122 
SCCF RECON,ioos:station:SCCF:56:1,2014-10-10T17:00:00Z,26.4645,-82.1044,0.968,27.05,1111122 
SCCF RECON,ioos:station:SCCF:56:1,2014-10-10T18:00:00Z,26.4645,-82.1044,0.98,26.97,1111122 
SCCF RECON,ioos:station:SCCF:56:1,2014-10-10T19:00:00Z,26.4645,-82.1044,0.99,26.97,1111122 
SCCF RECON,ioos:station:SCCF:56:1,2014-10-10T20:00:00Z,26.4645,-82.1044,1.0,26.96,1111122 
SCCF RECON,ioos:station:SCCF:56:1,2014-10-10T21:00:00Z,26.4645,-82.1044,1.01,26.95,1111122 
SCCF RECON,ioos:station:SCCF:56:1,2014-10-10T22:00:00Z,26.4645,-82.1044,1.01,26.94,1111122 
SCCF RECON,ioos:station:SCCF:56:1,2014-10-10T23:00:00Z,26.4645,-82.1044,1.01,27.06,1111122 
SCCF RECON,ioos:station:SCCF:56:1,2014-10-11T00:00:00Z,26.4645,-82.1044,1.01,27.12,1111122 
SCCF RECON,ioos:station:SCCF:56:1,2014-10-11T01:00:00Z,26.4645,-82.1044,1.0,27.19,1111122 
SCCF RECON,ioos:station:SCCF:56:1,2014-10-11T02:00:00Z,26.4645,-82.1044,1.0,27.22,1111122 
SCCF RECON,ioos:station:SCCF:56:1,2014-10-11T03:00:00Z,26.4645,-82.1044,0.97,26.95,1111122 
SCCF RECON,ioos:station:SCCF:56:1,2014-10-11T04:00:00Z,26.4645,-82.1044,0.95,27.06,1111122 
SCCF RECON,ioos:station:SCCF:56:1,2014-10-11T05:00:00Z,26.4645,-82.1044,0.94,27.0,1111122 
SCCF RECON,ioos:station:SCCF:56:1,2014-10-11T06:00:00Z,26.4645,-82.1044,0.94,26.98,1111122 
SCCF RECON,ioos:station:SCCF:56:1,2014-10-11T07:00:00Z,26.4645,-82.1044,0.93,26.94,1111122 
SCCF RECON,ioos:station:SCCF:56:1,2014-10-11T08:00:00Z,26.4645,-82.1044,0.93,27.09,1111122 
SCCF RECON,ioos:station:SCCF:56:1,2014-10-11T09:00:00Z,26.4645,-82.1044,0.93,27.0,1111122 
SCCF RECON,ioos:station:SCCF:56:1,2014-10-11T10:00:00Z,26.4645,-82.1044,0.92,27.07,1111122 
SCCF RECON,ioos:station:SCCF:56:1,2014-10-11T11:00:00Z,26.4645,-82.1044,0.92,27.15,1111122 
SCCF RECON,ioos:station:SCCF:56:1,2014-10-11T12:00:00Z,26.4645,-82.1044,0.91,27.27,1111122 
SCCF RECON,ioos:station:SCCF:56:1,2014-10-11T13:00:00Z,26.4645,-82.1044,0.909,27.36,1111122 
SCCF RECON,ioos:station:SCCF:56:1,2014-10-11T14:00:00Z,26.4645,-82.1044,0.908,27.48,1111122 
SCCF RECON,ioos:station:SCCF:56:1,2014-10-11T15:00:00Z,26.4645,-82.1044,0.92,27.54,1111122 
SCCF RECON,ioos:station:SCCF:56:1,2014-10-11T16:00:00Z,26.4645,-82.1044,0.95,27.28,1111122 
SCCF RECON,ioos:station:SCCF:56:1,2014-10-11T17:00:00Z,26.4645,-82.1044,0.991,27.16,1111122 
SCCF RECON,ioos:station:SCCF:56:1,2014-10-11T18:00:00Z,26.4645,-82.1044,1.0,27.17,1111122 
SCCF RECON,ioos:station:SCCF:56:1,2014-10-11T19:00:00Z,26.4645,-82.1044,1.01,27.18,1111122 
SCCF RECON,ioos:station:SCCF:56:1,2014-10-11T20:00:00Z,26.4645,-82.1044,1.03,27.15,1111122 